Location: Ahausen
(50.4985°N, 8.2722°E)
Time: 09:11:33
(UTC+00:00)

Oscar 19 - Visible Passes

Search period start: 27 June 2022 00:00
Search period end: 07 July 2022 00:00
Orbit: 772 x 790 km, 98.8° (Epoch: 26 June)

Date Brightness Start Highest point End Pass type
(mag) Time Alt. Az. Time Alt. Az. Time Alt. Az.
28 Jun 12.7 02:02:46 10° NE 02:06:50 23° E 02:10:52 10° SE visible
29 Jun 13.2 01:32:11 10° ENE 01:34:22 13° E 01:36:33 10° ESE visible
01 Jul 12.6 02:05:55 10° NE 02:10:05 24° E 02:14:13 10° SSE visible
02 Jul 13.2 01:35:11 10° ENE 01:37:38 13° E 01:40:05 10° ESE visible
04 Jul 12.6 02:09:04 10° NE 02:13:20 26° E 02:17:34 10° SSE visible
05 Jul 13.1 01:38:12 10° NE 01:40:54 14° E 01:43:35 10° ESE visible
